Skip Page Navigation
NASA JPL Caltech
NASA Logo - Jet Propulsion Laboratory + View the NASA Portal
+ Center for Near-Earth Object Studies
JPL Home Earth Solar System Stars & Galaxies Technology
JPL Solar System Dynamics
BODIES ORBITS EPHEMERIDES TOOLS PHYSICAL DATA DISCOVERY FAQ SITE MAP
IMPORTANT: The SSD Announcement email list is now available. Major changes are coming in the near future, including possible hostname and/or URL changes. To be notified of such changes, subscribe to this email list.

Please visit this page for more details.


JPL Small-Body Database Browser
Search: [ help ]  
48749 (1997 GZ6)
Classification: Main-belt Asteroid          SPK-ID: 2048749
Ephemeris | Orbit Diagram | Orbital Elements | Mission Design | Physical Parameters | Discovery Circumstances ]

[ show orbit diagram ]
Orbital Elements at Epoch 2458600.5 (2019-Apr-27.0) TDB
Reference: JPL 18 (heliocentric ecliptic J2000)
 Element Value Uncertainty (1-sigma)   Units 
e .1005115464613663 5.0006e-08  
a 2.332996986120814 9.5323e-09 au
q 2.098503851156105 1.1616e-07 au
i 3.459203895837572 4.4991e-06 deg
node 44.52657729692356 8.6238e-05 deg
peri 128.0229805217064 8.8645e-05 deg
M 100.304995544201 2.0766e-05 deg
tp 2458237.848268226176
(2018-Apr-29.34826823)
7.4716e-05 TDB
period 1301.576484104879
3.56
7.9771e-06
2.184e-08
d
yr
n .2765876645716901 1.6952e-09 deg/d
Q 2.567490121085524 1.049e-08 au
  Orbit Determination Parameters
   # obs. used (total)      764  
   data-arc span      8753 days (23.96 yr)  
   first obs. used      1995-11-15  
   last obs. used      2019-11-02  
   planetary ephem.      DE431  
   SB-pert. ephem.      SB431-N16  
   condition code      0  
   norm. resid. RMS      .56469  
   source      ORB  
   producer      Otto Matic  
   solution date      2019-Dec-04 03:37:34  

Additional Information
 Earth MOID = 1.1059 au 
 Jupiter MOID = 2.39727 au 
 T_jup = 3.560 
[ show covariance matrix ]

Ephemeris | Orbit Diagram | Orbital Elements | Mission Design | Physical Parameters | Discovery Circumstances ]

Physical Parameter Table
Parameter Symbol Value Units Sigma Reference Notes
absolute magnitude H 15.7   n/a MPO436124  

48749 (1997 GZ6)          Discovered 1997-Apr-02 by LINEAR at Socorro
Reference: 20021120/Numbers.arcLast Updated: 2004-04-19

Alternate Designations
 1997 GZ6 = 1995 VR16 
Ephemeris | Orbit Diagram | Orbital Elements | Mission Design | Physical Parameters | Discovery Circumstances ]
ABOUT SSD CREDITS/AWARDS PRIVACY/COPYRIGHT GLOSSARY LINKS
FirstGov 2020-Jan-29 02:12 UT
(server date/time)  
NASA Home Page
Site Manager:   Ryan S. Park
Webmaster  Alan B. Chamberlin